Home > Time Zones > World Clock > Weather > Iraq > Kirkuk > Past weeks

Flag for Iraq Weather past 2 weeks in Kirkuk, Iraq

Now
64 °F

Clear.


Feels Like: 64 °F
Forecast: 77 / 112 °F
Wind: 2 mph from Southeast

Location: Sanandaj Airport

Current Time: Jul 23, 2014 at 4:15:12 AM

Latest Report: Jul 23, 2014 at 2:55 AM


Visibility: 10 mi

Pressure: 29.86 "Hg

Humidity: 34%

Dew point: 36 °F

Location of KirkukLocation

Historic Weather in Kirkuk — Graph

°F

Kirkuk temperature yesterday

Maximum temperature yesterday: 93 °F (at 2:30 PM)
Minimum temperature yesterday: 57 °F (at 4:52 AM)
Average temperature yesterday: 81 °F

Past Weeks' High & Low Weather Summary

 TemperatureHumidityPressure
High106 °F (Jul 17, 1:00 PM)49% (Jul 21, 5:30 AM)29.95 "Hg (Jul 21, 5:30 AM)
Low55 °F (Jul 9, 5:00 AM)5% (Jul 10, 4:00 PM)29.68 "Hg (Jul 20, 3:00 PM)
Average85 °F19%29.83 "Hg
* Reported Jul 7 6:52 PM — Jul 22 6:52 PM, Kirkuk, Weather by CustomWeather, © 2014

Note: Actual official high and low records may vary slightly from our data, if they occured in-between our weather recording intervals... More about our weather records

Advertising

Kirkuk weather history for previous 24 hours

 ConditionsComfort  
Time TempWeatherWind HumidityBarometerVisibility
6:52 PM
Jul 22
86 °FSunny.7 mph14%29.80 "Hg10 mi
5:53 PM91 °FSunny.12 mph12%29.80 "Hg10 mi
4:53 PM93 °FSunny.7 mph9%29.77 "Hg10 mi
4:30 PM93 °FSunny.9 mph9%29.77 "Hg10 mi
4:00 PM93 °FSunny.7 mph10%29.77 "Hg10 mi
3:30 PM93 °FSunny.9 mph11%29.77 "Hg10 mi
3:00 PM93 °FSunny.7 mph9%29.77 "Hg10 mi
2:30 PM93 °FSunny.9 mph9%29.80 "Hg10 mi
2:00 PM91 °FSunny.5 mph9%29.80 "Hg10 mi
1:00 PM91 °FSunny.5 mph9%29.80 "Hg10 mi
12:00 PM90 °FSunny.9 mph11%29.83 "Hg10 mi
10:52 AM86 °FSunny.7 mph14%29.83 "Hg10 mi
10:00 AM82 °FSunny.5 mph19%29.86 "Hg10 mi
9:00 AM81 °FSunny.5 mph21%29.86 "Hg10 mi
8:00 AM77 °FSunny.2 mph24%29.89 "Hg10 mi
7:00 AM72 °FSunny.2 mph29%29.89 "Hg10 mi
6:00 AM57 °FClear.No wind44%29.89 "Hg10 mi
4:52 AM57 °FClear.No wind44%29.86 "Hg10 mi
Weather by CustomWeather, © 2014

See weather overviewHow to use our weather pages